• In Belarus
  • List of Countries
  • For 7 days
  • Water Temperature
  • Satellite Maps
  • Weather Map
  • Weather Widgets
  • user-avatar
    Login

    Hourly Weather Ordino

    Today, 16 December, Saturday

    Time Temperature Precipitation Wind Pressure Humidity
    00:00 -7°C° 0 mm 3 mps 625 mmHg 78%
    01:00 -6°C° 0.1 mm 3 mps 626 mmHg 79%
    02:00 -6°C° 0.1 mm 3 mps 626 mmHg 80%
    03:00 -6°C° 0.1 mm 3 mps 626 mmHg 81%
    04:00 -6°C° 0 mm 3 mps 627 mmHg 81%
    05:00 -7°C° 0 mm 3 mps 627 mmHg 81%
    06:00 -6°C° 0 mm 2 mps 627 mmHg 83%
    07:00 -6°C° 0 mm 2 mps 628 mmHg 79%
    08:00 -6°C° 0 mm 3 mps 629 mmHg 74%
    09:00 -5°C° 0 mm 3 mps 630 mmHg 70%
    10:00 -4°C° 0 mm 3 mps 630 mmHg 65%
    11:00 -4°C° 0 mm 3 mps 631 mmHg 60%
    12:00 -3°C° 0 mm 4 mps 631 mmHg 57%
    13:00 -3°C° 0 mm 4 mps 631 mmHg 58%
    14:00 -4°C° 0 mm 4 mps 632 mmHg 60%
    15:00 -4°C° 0 mm 3 mps 632 mmHg 62%
    16:00 -5°C° 0 mm 3 mps 632 mmHg 66%
    17:00 -6°C° 0 mm 3 mps 632 mmHg 70%
    18:00 -7°C° 0 mm 3 mps 632 mmHg 75%
    19:00 -7°C° 0.1 mm 3 mps 632 mmHg 75%
    20:00 -7°C° 0.1 mm 3 mps 633 mmHg 76%
    21:00 -8°C° 0.1 mm 3 mps 633 mmHg 76%
    22:00 -8°C° 0.1 mm 3 mps 633 mmHg 76%
    23:00 -8°C° 0.1 mm 3 mps 634 mmHg 77%

    Tomorrow, 17 December, Sunday

    Time Temperature Precipitation Wind Pressure Humidity
    00:00 -8°C° 0.1 mm 3 mps 634 mmHg 77%
    01:00 -8°C° 0 mm 3 mps 634 mmHg 77%
    02:00 -8°C° 0 mm 3 mps 634 mmHg 77%
    03:00 -9°C° 0 mm 3 mps 634 mmHg 77%
    04:00 -9°C° 0 mm 3 mps 634 mmHg 76%
    05:00 -9°C° 0 mm 3 mps 634 mmHg 75%
    06:00 -9°C° 0 mm 3 mps 634 mmHg 74%
    07:00 -8°C° 0 mm 3 mps 635 mmHg 70%
    08:00 -7°C° 0 mm 3 mps 636 mmHg 67%
    09:00 -6°C° 0 mm 3 mps 637 mmHg 64%
    10:00 -5°C° 0 mm 3 mps 637 mmHg 61%
    11:00 -4°C° 0 mm 3 mps 638 mmHg 58%
    12:00 -1°C° 0 mm 3 mps 638 mmHg 55%
    13:00 -1°C° 0 mm 3 mps 638 mmHg 58%
    14:00 -1°C° 0 mm 3 mps 638 mmHg 62%
    15:00 -2°C° 0 mm 3 mps 638 mmHg 65%
    16:00 -2°C° 0 mm 3 mps 638 mmHg 70%
    17:00 -4°C° 0 mm 3 mps 638 mmHg 74%
    18:00 -5°C° 0 mm 3 mps 638 mmHg 78%
    19:00 -5°C° 0 mm 3 mps 638 mmHg 79%
    20:00 -5°C° 0 mm 3 mps 638 mmHg 80%
    21:00 -5°C° 0 mm 3 mps 639 mmHg 81%
    22:00 -5°C° 0 mm 3 mps 639 mmHg 82%
    23:00 -5°C° 0 mm 3 mps 639 mmHg 82%

    Day after tomorrow, 18 December, Monday

    Time Temperature Precipitation Wind Pressure Humidity
    00:00 -4°C° 0 mm 3 mps 639 mmHg 82%
    01:00 -4°C° 0 mm 2 mps 639 mmHg 83%
    02:00 -4°C° 0 mm 2 mps 639 mmHg 84%
    03:00 -5°C° 0 mm 2 mps 639 mmHg 84%
    04:00 -5°C° 0 mm 2 mps 639 mmHg 84%
    05:00 -6°C° 0 mm 3 mps 639 mmHg 83%
    06:00 -6°C° 0 mm 3 mps 639 mmHg 83%
    07:00 -5°C° 0 mm 3 mps 639 mmHg 80%
    08:00 -3°C° 0 mm 2 mps 640 mmHg 78%
    09:00 -1°C° 0 mm 2 mps 640 mmHg 75%
    10:00 +1°C° 0 mm 2 mps 640 mmHg 73%
    11:00 +1°C° 0 mm 3 mps 640 mmHg 71%
    12:00 +2°C° 0 mm 3 mps 640 mmHg 69%
    13:00 +2°C° 0 mm 3 mps 640 mmHg 71%
    14:00 +1°C° 0 mm 3 mps 639 mmHg 73%
    15:00 +1°C° 0 mm 3 mps 639 mmHg 75%
    16:00 +1°C° 0.2 mm 3 mps 638 mmHg 78%
    17:00 0°C° 0.2 mm 3 mps 638 mmHg 81%
    18:00 -1°C° 0.2 mm 3 mps 638 mmHg 84%
    19:00 0°C° 0.4 mm 3 mps 637 mmHg 85%
    20:00 -1°C° 0.4 mm 4 mps 637 mmHg 86%
    21:00 -1°C° 0.4 mm 4 mps 637 mmHg 87%
    22:00 -1°C° 0.2 mm 4 mps 637 mmHg 88%
    23:00 -1°C° 0.2 mm 4 mps 637 mmHg 88%

    19 December, Tuesday

    Time Temperature Precipitation Wind Pressure Humidity
    00:00 -1°C° 0.2 mm 4 mps 637 mmHg 89%
    01:00 -2°C° 0.1 mm 4 mps 637 mmHg 89%
    02:00 -2°C° 0.1 mm 4 mps 637 mmHg 89%
    03:00 -3°C° 0.1 mm 4 mps 637 mmHg 89%
    04:00 -3°C° 0 mm 4 mps 638 mmHg 89%
    05:00 -4°C° 0 mm 3 mps 638 mmHg 89%
    06:00 -5°C° 0 mm 3 mps 638 mmHg 89%
    07:00 -4°C° 0 mm 3 mps 639 mmHg 85%
    08:00 -4°C° 0 mm 3 mps 639 mmHg 82%
    09:00 -3°C° 0 mm 2 mps 640 mmHg 78%
    10:00 -1°C° 0 mm 2 mps 640 mmHg 72%
    11:00 +1°C° 0 mm 2 mps 641 mmHg 66%
    12:00 +2°C° 0 mm 2 mps 642 mmHg 60%
    13:00 +2°C° 0 mm 2 mps 641 mmHg 62%
    14:00 +2°C° 0 mm 2 mps 641 mmHg 65%
    15:00 +1°C° 0 mm 2 mps 641 mmHg 68%
    16:00 -1°C° 0 mm 2 mps 641 mmHg 72%
    17:00 -3°C° 0 mm 2 mps 640 mmHg 77%
    18:00 -5°C° 0 mm 2 mps 640 mmHg 81%
    19:00 -5°C° 0 mm 2 mps 640 mmHg 78%
    20:00 -5°C° 0 mm 2 mps 641 mmHg 75%
    21:00 -5°C° 0 mm 2 mps 641 mmHg 72%
    22:00 -5°C° 0 mm 2 mps 641 mmHg 71%
    23:00 -5°C° 0 mm 2 mps 641 mmHg 69%

    20 December, Wednesday

    Time Temperature Precipitation Wind Pressure Humidity
    00:00 -5°C° 0 mm 2 mps 641 mmHg 67%
    01:00 -5°C° 0 mm 2 mps 641 mmHg 65%
    02:00 -5°C° 0 mm 2 mps 641 mmHg 63%
    03:00 -5°C° 0 mm 2 mps 641 mmHg 61%
    04:00 -5°C° 0 mm 2 mps 641 mmHg 61%
    05:00 -5°C° 0 mm 2 mps 641 mmHg 62%
    06:00 -5°C° 0 mm 2 mps 641 mmHg 62%
    07:00 -3°C° 0 mm 2 mps 641 mmHg 61%
    08:00 -2°C° 0 mm 2 mps 642 mmHg 59%
    09:00 -1°C° 0 mm 2 mps 642 mmHg 58%
    10:00 +2°C° 0 mm 2 mps 643 mmHg 57%
    11:00 +3°C° 0 mm 2 mps 643 mmHg 56%
    12:00 +5°C° 0 mm 2 mps 643 mmHg 55%
    13:00 +4°C° 0 mm 2 mps 643 mmHg 58%
    14:00 +4°C° 0 mm 2 mps 643 mmHg 61%
    15:00 +4°C° 0 mm 2 mps 642 mmHg 64%
    16:00 +2°C° 0 mm 2 mps 642 mmHg 67%
    17:00 +1°C° 0 mm 2 mps 642 mmHg 70%
    18:00 -2°C° 0 mm 2 mps 642 mmHg 73%
    19:00 -2°C° 0 mm 2 mps 642 mmHg 72%
    20:00 -2°C° 0 mm 2 mps 642 mmHg 71%
    21:00 -2°C° 0 mm 2 mps 642 mmHg 71%
    22:00 -2°C° 0 mm 2 mps 642 mmHg 70%
    23:00 -2°C° 0 mm 2 mps 642 mmHg 69%

    21 December, Thursday

    Time Temperature Precipitation Wind Pressure Humidity
    00:00 -2°C° 0 mm 2 mps 642 mmHg 68%
    01:00 -2°C° 0 mm 2 mps 642 mmHg 69%
    02:00 -2°C° 0 mm 2 mps 642 mmHg 70%
    03:00 -2°C° 0 mm 2 mps 642 mmHg 71%
    04:00 -2°C° 0 mm 2 mps 642 mmHg 72%
    05:00 -2°C° 0 mm 2 mps 642 mmHg 73%
    06:00 -2°C° 0 mm 2 mps 642 mmHg 74%
    07:00 -1°C° 0 mm 2 mps 643 mmHg 72%
    08:00 +1°C° 0 mm 2 mps 644 mmHg 70%
    09:00 +2°C° 0 mm 2 mps 644 mmHg 68%
    10:00 +4°C° 0 mm 2 mps 644 mmHg 66%
    11:00 +5°C° 0 mm 2 mps 645 mmHg 63%
    12:00 +7°C° 0 mm 2 mps 645 mmHg 61%
    13:00 +6°C° 0 mm 2 mps 645 mmHg 64%
    14:00 +6°C° 0 mm 2 mps 644 mmHg 66%
    15:00 +6°C° 0 mm 1 mps 644 mmHg 68%
    16:00 +4°C° 0 mm 2 mps 643 mmHg 70%
    17:00 +2°C° 0 mm 2 mps 643 mmHg 72%
    18:00 +1°C° 0 mm 2 mps 643 mmHg 74%
    19:00 +1°C° 0 mm 2 mps 643 mmHg 72%
    20:00 -1°C° 0 mm 2 mps 643 mmHg 70%
    21:00 -1°C° 0 mm 2 mps 643 mmHg 69%
    22:00 -1°C° 0 mm 2 mps 643 mmHg 69%
    23:00 -1°C° 0 mm 2 mps 643 mmHg 69%
    Show more